White Mountain, AK

5:31 PM AKDT on October 20, 2017 (GMT -0800)
White Mountain

Weather History for PAWM - August, 2013

Change the Weather History Date:

Monday, August 19, 2013

  Actual Average (PAOM) Record (PAOM)
Temperature  
Mean Temperature 56 °F -  
Max Temperature 62 °F 54 °F 80 °F (2004)
Min Temperature 51 °F 41 °F 28 °F (1966)
Degree Days  
Heating Degree Days 8    
Growing Degree Days 6 (Base 50)    
Moisture  
Dew Point 11 °F    
Average Humidity 19    
Maximum Humidity 21    
Minimum Humidity 16    
Precipitation  
Precipitation 0.13 in - - ()
Sea Level Pressure  
Sea Level Pressure 29.54 in    
Wind  
Wind Speed 8 mph (North)    
Max Wind Speed 16 mph    
Max Gust Speed 16 mph    
Visibility 4 miles    
Events Rain    
Averages and records for this station are not official NWS values.
T = Trace of Precipitation, MM = Missing Value Source: NWS Daily Summary

Daily Weather History Graph

Daily Weather History Graph

Search for Another Location

Airport or City:

Trip Planner

Search our weather history database for the weather conditions in past years. The results will help you decide how hot, cold, wet, or windy it might be!

Date:

Astronomy

Aug. 19, 2013 Rise Set
Actual Time 6:55 AM AKDT 10:56 PM AKDT
Civil Twilight 5:51 AM AKDT 11:59 PM AKDT
Nautical Twilight 3:51 AM AKDT 1:51 AM AKDT
Astronomical Twilight Sun does not rise Sun does not rise
Moon 9:48 PM AKDT (8/19) 5:18 AM AKDT (8/19)
Length of Visible Light 18h 07m
Length of Day
16h 01m
Waxing Gibbous, 98% of the Moon is Illuminated
Aug 19
Waxing Gibbous
Aug 20
Full
Aug 28
Last Quarter
Sep 5
New
Sep 12
First Quarter

Hourly Weather History & Observations

Time (AKDT) Temp. Dew Point Humidity Pressure Visibility Wind Dir Wind Speed Gust Speed Precip Events Conditions
12:17 AM 53.6 °F 12.2 °F 19% 29.50 in 1.0 mi SSW 11.5 mph - 0.01 in Rain Light Rain
12:22 AM 53.6 °F 12.2 °F 19% 29.50 in 2.0 mi SSW 10.4 mph - 0.01 in Rain Light Rain
12:27 AM 53.6 °F 12.2 °F 19% 29.50 in 5.0 mi SSW 9.2 mph - 0.02 in Rain Light Rain
12:58 AM 52.0 °F 10.9 °F 19% 29.54 in 2.0 mi SSW 10.4 mph - 0.03 in Rain Light Rain
12:59 AM 51.8 °F 10.4 °F 19% 29.50 in 1.8 mi SSW 11.5 mph - 0.01 in Rain Light Rain
1:07 AM 51.8 °F 10.4 °F 19% 29.50 in 3.0 mi SSW 11.5 mph - 0.02 in Rain Light Rain
1:17 AM 51.8 °F 10.4 °F 19% 29.50 in 2.0 mi South 9.2 mph - 0.03 in Rain Light Rain
1:21 AM 51.8 °F 10.4 °F 19% 29.50 in 1.8 mi SSW 10.4 mph - 0.04 in Rain Light Rain
1:26 AM 51.8 °F 10.4 °F 19% 29.50 in 3.0 mi South 9.2 mph - 0.04 in Rain Light Rain
1:58 AM 52.0 °F 10.9 °F 19% 29.53 in 2.0 mi South 9.2 mph - 0.07 in Rain Light Rain
2:08 AM 51.8 °F 10.4 °F 19% 29.50 in 1.0 mi SSW 8.1 mph - 0.00 in Rain Light Rain
2:13 AM 51.8 °F 10.4 °F 19% 29.50 in 0.8 mi SSW 8.1 mph - 0.01 in Rain Light Rain
2:20 AM 51.8 °F 10.4 °F 19% 29.50 in 1.2 mi SSW 10.4 mph - 0.01 in Rain Light Rain
2:27 AM 51.8 °F 10.4 °F 19% 29.50 in 2.5 mi SSW 8.1 mph - 0.01 in Rain Light Rain
2:33 AM 51.8 °F 10.4 °F 19% 29.49 in 1.0 mi South 8.1 mph - 0.01 in Rain Light Rain
2:38 AM 51.8 °F 10.4 °F 19% 29.49 in 0.8 mi South 8.1 mph - 0.01 in Rain Light Rain
2:45 AM 51.8 °F 10.4 °F 19% 29.49 in 1.2 mi South 6.9 mph - 0.02 in Rain Light Rain
2:56 AM 51.8 °F 10.4 °F 19% 29.49 in 0.8 mi South 4.6 mph - 0.02 in Rain Light Rain
2:58 AM 52.0 °F 10.0 °F 19% 29.52 in 0.8 mi South 5.8 mph - 0.02 in Rain Light Rain
3:23 AM 51.8 °F 8.6 °F 18% 29.48 in 0.5 mi South 5.8 mph - 0.00 in Rain Light Rain
3:47 AM 51.8 °F 8.6 °F 18% 29.48 in 0.8 mi South 4.6 mph - 0.00 in   Haze
3:52 AM 51.8 °F 8.6 °F 18% 29.48 in 1.0 mi South 5.8 mph - 0.00 in   Haze
3:57 AM 52.0 °F 9.0 °F 18% 29.51 in 0.8 mi South 3.5 mph - 0.00 in   Haze
4:02 AM 51.8 °F 8.6 °F 18% 29.48 in 0.5 mi SSE 3.5 mph - N/A   Haze
4:34 AM 51.8 °F 8.6 °F 18% 29.48 in 0.8 mi Calm Calm - N/A   Haze
4:39 AM 51.8 °F 10.4 °F 19% 29.49 in 1.0 mi Calm Calm - N/A   Haze
4:44 AM 51.8 °F 8.6 °F 18% 29.49 in 0.8 mi Calm Calm - N/A   Haze
4:51 AM 51.8 °F 8.6 °F 18% 29.49 in 0.5 mi Calm Calm - N/A   Haze
4:58 AM 52.0 °F 9.0 °F 18% 29.52 in 0.5 mi Calm Calm - N/A   Haze
5:28 AM 51.8 °F 8.6 °F 18% 29.48 in 0.8 mi NE 3.5 mph - 0.00 in Rain Light Rain
5:34 AM 51.8 °F 8.6 °F 18% 29.48 in 1.0 mi ENE 3.5 mph - 0.01 in Rain Light Rain
5:42 AM 51.8 °F 8.6 °F 18% 29.49 in 1.2 mi NE 3.5 mph - 0.01 in Rain Light Rain
5:58 AM 51.1 °F 8.1 °F 18% 29.52 in 1.2 mi NE 3.5 mph - 0.01 in   Haze
6:02 AM 51.8 °F 8.6 °F 18% 29.49 in 1.5 mi NNE 3.5 mph - N/A   Haze
6:11 AM 51.8 °F 8.6 °F 18% 29.49 in 1.2 mi NE 4.6 mph - N/A   Haze
6:16 AM 51.8 °F 8.6 °F 18% 29.49 in 1.0 mi NE 3.5 mph - N/A   Haze
6:20 AM 51.8 °F 8.6 °F 18% 29.49 in 0.8 mi NE 3.5 mph - N/A   Haze
6:24 AM 51.8 °F 8.6 °F 18% 29.49 in 0.5 mi NE 3.5 mph - N/A   Haze
6:32 AM 51.8 °F 8.6 °F 18% 29.49 in 0.2 mi NE 4.6 mph - N/A   Haze
6:46 AM 51.8 °F 8.6 °F 18% 29.49 in 0.2 mi North 5.8 mph - N/A   Haze
6:50 AM 51.8 °F 8.6 °F 18% 29.50 in 0.8 mi North 4.6 mph - N/A   Haze
6:52 AM 51.8 °F 8.6 °F 18% 29.50 in 1.5 mi North 5.8 mph - N/A   Haze
6:57 AM 51.1 °F 8.1 °F 18% 29.53 in 0.8 mi North 4.6 mph - N/A   Haze
7:02 AM 51.8 °F 8.6 °F 18% 29.50 in 0.5 mi North 5.8 mph - N/A   Haze
7:08 AM 51.8 °F 8.6 °F 18% 29.50 in 1.0 mi North 5.8 mph - N/A   Haze
7:12 AM 51.8 °F 8.6 °F 18% 29.50 in 1.5 mi North 4.6 mph - N/A   Haze
7:18 AM 51.8 °F 8.6 °F 18% 29.50 in 2.0 mi North 4.6 mph - N/A   Haze
7:25 AM 51.8 °F 8.6 °F 18% 29.51 in 8.0 mi North 5.8 mph - N/A   Overcast
7:29 AM 51.8 °F 8.6 °F 18% 29.51 in 1.0 mi NNW 8.1 mph - N/A   Haze
7:33 AM 51.8 °F 8.6 °F 18% 29.51 in 0.8 mi NNW 8.1 mph - N/A   Haze
7:38 AM 51.8 °F 8.6 °F 18% 29.51 in 1.5 mi NNW 6.9 mph - N/A   Haze
7:42 AM 51.8 °F 8.6 °F 18% 29.51 in 10.0 mi NNW 9.2 mph - N/A   Overcast
7:52 AM 51.8 °F 8.6 °F 18% 29.52 in 2.5 mi North 8.1 mph - N/A   Haze
7:58 AM 51.1 °F 8.1 °F 18% 29.55 in 1.5 mi North 6.9 mph - N/A   Haze
8:07 AM 51.8 °F 8.6 °F 18% 29.52 in 3.0 mi NNW 9.2 mph - N/A   Haze
8:13 AM 51.8 °F 8.6 °F 18% 29.51 in 2.5 mi North 9.2 mph - N/A   Haze
8:22 AM 51.8 °F 6.8 °F 16% 29.52 in 8.0 mi North 9.2 mph - N/A   Overcast
8:36 AM 51.8 °F 6.8 °F 16% 29.52 in 10.0 mi North 6.9 mph - N/A   Mostly Cloudy
8:58 AM 52.0 °F 9.0 °F 18% 29.56 in 10.0 mi North 6.9 mph - N/A   Mostly Cloudy
9:32 AM 53.6 °F 12.2 °F 19% 29.53 in 10.0 mi North 6.9 mph - N/A   Scattered Clouds
9:58 AM 54.0 °F 10.9 °F 18% 29.58 in 10.0 mi North 8.1 mph - N/A   Partly Cloudy
10:26 AM 53.6 °F 12.2 °F 19% 29.55 in 10.0 mi North 8.1 mph - N/A   Mostly Cloudy
10:34 AM 55.4 °F 12.2 °F 18% 29.55 in 10.0 mi North 10.4 mph - N/A   Mostly Cloudy
10:46 AM 55.4 °F 14.0 °F 20% 29.56 in 10.0 mi North 11.5 mph - N/A   Mostly Cloudy
10:54 AM 55.4 °F 14.0 °F 20% 29.56 in 10.0 mi North 9.2 mph - N/A   Mostly Cloudy
10:58 AM 55.9 °F 15.1 °F 20% 29.59 in 10.0 mi NNE 9.2 mph - N/A   Mostly Cloudy
11:19 AM 57.2 °F 15.8 °F 20% 29.57 in 10.0 mi NNE 9.2 mph - N/A   Scattered Clouds
11:58 AM 57.0 °F 17.1 °F 21% 29.62 in 9.0 mi North 12.7 mph - N/A   Overcast
12:35 PM 57.2 °F 15.8 °F 20% 29.60 in 10.0 mi NNE 9.2 mph - N/A   Overcast
12:58 PM 57.9 °F 16.0 °F 19% 29.64 in 10.0 mi NNE 11.5 mph 16.1 mph N/A   Overcast
1:44 PM 57.2 °F 15.8 °F 20% 29.62 in 10.0 mi NNE 6.9 mph - N/A   Overcast
1:58 PM 59.0 °F 17.1 °F 20% 29.66 in 10.0 mi North 10.4 mph - N/A   Overcast
2:58 PM 62.1 °F 19.9 °F 20% 29.67 in 9.0 mi North 10.4 mph 16.1 mph N/A   Mostly Cloudy
3:58 PM 60.1 °F 17.1 °F 19% 29.69 in 10.0 mi NNE 8.1 mph - N/A   Overcast
4:58 PM 60.1 °F 18.0 °F 20% 29.69 in 10.0 mi NNE 5.8 mph - N/A   Overcast
5:58 PM 60.1 °F 18.0 °F 20% 29.70 in 10.0 mi North 9.2 mph - N/A   Overcast
6:58 PM 61.0 °F 19.0 °F 20% 29.71 in 10.0 mi North 9.2 mph - N/A   Mostly Cloudy
7:58 PM 60.1 °F 18.0 °F 20% 29.72 in 10.0 mi North 5.8 mph - N/A   Clear
8:58 PM 59.0 °F 16.0 °F 19% 29.73 in 10.0 mi North 8.1 mph - N/A   Scattered Clouds
9:58 PM 55.9 °F 12.0 °F 18% 29.74 in 10.0 mi North 8.1 mph - N/A   Clear
10:58 PM 53.1 °F 9.0 °F 17% 29.75 in 10.0 mi NNW 8.1 mph - N/A   Partly Cloudy
11:58 PM 52.0 °F 7.0 °F 16% 29.76 in 10.0 mi NNW 16.1 mph - N/A   Clear